{"data":{"norad_id":67311,"epoch":"2026-09-19T10:42:33.579936Z","epoch_age_seconds":166458,"freshness":"FRESH","line1":"1 67311U 26002G   26262.44622199  .00015884  00000+0  58508-3 0  9997","line2":"2 67311  43.0036 310.8444 0002266 266.6648  93.3945 15.27601685 40877","mean_motion":15.27601685,"eccentricity":0.0002266,"inclination_deg":43.0036,"raan_deg":310.8444,"arg_perigee_deg":266.6648,"mean_anomaly_deg":93.3945,"bstar":0.00058508,"rev_number":4087,"period_min":94.265410554323,"perigee_km":481.42943406085,"apogee_km":484.53889417243,"semimajor_km":6861.1211641166,"source":"CELESTRAK","updated_at":"2026-09-20T09:00:43.503629Z"}}